[[{"header":{"parameterUnit":"m.s-1","parameterCategory":1,"la1":30.2991,"la2":30.254,"lo1":-89.0895,"lo2":-89.0444,"dy":0.0017,"dx":0.0017,"nx":28,"ny":28,"refTime":"2023-11-20T03:00:00:Z","depth":0,"parameterNumber":2,"parameterNumberName":"U-component_of_WINDS"},"data":[0,0,0,0,0,0,0,0,0,0,0,0,0,0,0,0,0,0,0,0,0,0,0,0,0,0,0,0,0,0,0,0,0,0,0,0,0,0,0,0,0,0,0,0,0,0,0,0,0,0,0,0,0,0,0,0,0,0,-3.2857,-3.2858,0,-3.2966,-3.2967,-3.2968,-3.2975,-3.2974,-3.2973,-3.2972,-3.308,-3.3084,-3.3088,0,0,0,0,0,0,0,0,0,0,0,0,0,-3.2651,-3.2654,-3.2856,-3.2858,-3.2859,-3.2966,-3.2967,-3.2969,-3.2976,-3.2974,-3.2973,-3.2971,-3.3079,-3.3084,-3.3089,0,0,0,0,0,0,0,0,0,0,0,0,0,-3.2748,-3.2656,-3.2856,-3.2876,-3.2878,-3.2965,-3.2967,-3.2969,-3.2976,-3.2974,-3.2972,-3.297,-3.3077,-3.3083,-3.3089,-3.3163,0,0,-3.3108,-3.311,0,0,0,0,0,0,0,0,-3.2742,-3.2755,-3.2871,-3.2874,-3.2878,-3.2955,-3.2934,-3.3034,-3.2976,-3.2939,-3.2972,-3.297,-3.304,-3.3049,-3.3073,-3.3168,-3.3173,-3.3108,-3.3112,-3.3115,-3.3116,0,0,0,0,0,0,0,-3.2736,-3.2751,-3.29,-3.2873,-3.2877,-3.2878,-3.289,-3.2953,-3.2998,-3.2942,-3.2943,-3.2956,-3.3041,-3.3068,-3.3076,-3.3175,-3.3108,-3.3114,-3.3117,-3.312,-3.3335,-3.3337,0,0,0,0,0,0,-3.2726,-3.2745,-3.2896,-3.2903,-3.2804,-3.2883,-3.2896,-3.2932,-3.2998,-3.3006,-3.2957,-3.2956,-3.3058,-3.3069,-3.308,-3.3169,-3.3115,-3.312,-3.3124,-3.3332,-3.3335,-3.3337,0,0,0,0,0,0,-3.2721,-3.2739,-3.2892,-3.2824,-3.2844,-3.2888,-3.2929,-3.2935,-3.2961,-3.3009,-3.3017,-3.2976,-3.3057,-3.3071,-3.3142,-3.3173,-3.3123,-3.3128,-3.333,-3.3333,-3.3336,-3.335,0,0,0,0,0,0,-3.2715,-3.2737,-3.2767,-3.2825,-3.2847,-3.2953,-3.2931,-3.2939,-3.2972,-3.2971,-3.3029,-3.3036,-3.3057,-3.3133,-3.3148,-3.3181,-3.3133,-3.3327,-3.3331,-3.3335,-3.3347,-3.3353,-3.3359,0,0,0,0,0,-3.2708,-3.2766,-3.2768,-3.2786,-3.2885,-3.2955,-3.2968,-3.2991,-3.2975,-3.3004,-3.3034,-3.3035,-3.3168,-3.3141,-3.3158,-3.3192,-3.3325,-3.333,-3.3335,-3.3344,-3.3352,-3.3358,0,0,0,0,0,0,-3.2709,-3.2774,-3.2777,-3.2856,-3.29,-3.2956,-3.2994,-3.2999,-3.3048,-3.3044,-3.307,-3.3083,-3.3153,-3.318,-3.3148,-3.3267,-3.3245,-3.3253,-3.3246,-3.3254,-3.326,-3.3251,-3.3138,0,0,0,0,0,-3.2718,-3.2771,-3.2825,-3.2889,-3.2911,-3.2949,-3.298,-3.2994,-3.3041,-3.3059,-3.3095,-3.3139,-3.3191,-3.3224,-3.3275,-3.3352,-3.3363,-3.3384,-3.339,-3.3394,-3.34,-3.3442,-3.3451,-3.3353,-3.3353,-3.3353,0,0,-3.2738,-3.278,-3.2811,-3.289,-3.2926,-3.2978,-3.2964,-3.3021,-3.3059,-3.3067,-3.3136,-3.3164,-3.3215,-3.3289,-3.3324,-3.3314,-3.343,-3.34,-3.3403,-3.3407,-3.3447,-3.3457,-3.3465,-3.3356,-3.3355,-3.3355,0,0,-3.28,-3.2839,-3.2895,-3.2932,-3.2987,-3.3012,-3.3026,-3.3082,-3.3101,-3.3171,-3.3178,-3.3224,-3.3313,-3.3349,-3.3378,-3.3455,-3.3456,-3.3471,-3.35,-3.354,-3.3548,-3.3555,-3.3581,-3.359,-3.3477,-3.3477,-3.3477,0,-3.2817,-3.2898,-3.2924,-3.298,-3.3014,-3.3025,-3.3082,-3.3116,-3.3184,-3.3207,-3.3195,-3.3307,-3.3342,-3.3424,-3.3443,-3.3467,-3.3482,-3.3463,-3.3545,-3.3552,-3.3559,-3.3584,-3.3593,-3.3479,-3.3479,-3.3478,-3.3478,0,-3.2915,-3.2971,-3.3011,-3.3077,-3.3115,-3.3172,-3.3205,-3.3241,-3.3252,-3.3277,-3.3348,-3.3391,-3.345,-3.3471,-3.3482,-3.3554,-3.3546,-3.354,-3.3518,-3.3569,-3.3593,-3.3603,-3.348,-3.348,-3.348,-3.3479,0,0,-3.298,-3.3061,-3.3074,-3.3104,-3.3166,-3.3209,-3.3266,-3.3324,-3.3353,-3.3401,-3.3447,-3.3523,-3.3518,-3.3551,-3.3567,-3.3602,-3.3658,-3.3591,-3.3593,-3.3601,-3.3738,-3.3741,-3.3752,-3.3661,-3.3662,-3.3664,-3.3733,0,-3.3047,-3.3149,-3.3174,-3.3261,-3.3312,-3.3323,-3.3372,-3.3415,-3.3441,-3.3487,-3.3515,-3.3567,-3.3557,-3.3578,-3.3613,-3.3644,-3.3686,-3.3639,-3.3702,-3.3704,-3.3687,-3.3764,-3.3768,-3.3831,-3.3743,-3.3745,-3.3746,0,-3.314,-3.3189,-3.3281,-3.3336,-3.3358,-3.3402,-3.3457,-3.3502,-3.355,-3.3566,-3.3605,-3.3617,-3.3675,-3.3652,-3.3731,-3.3699,-3.3727,-3.3746,-3.3749,-3.3754,-3.3726,-3.3769,-3.3852,-3.3861,-3.3761,-3.376,-3.3759,0,-3.3175,-3.3265,-3.3331,-3.3357,-3.3423,-3.3453,-3.3482,-3.3528,-3.3562,-3.361,-3.3632,-3.3686,-3.3715,-3.3757,-3.3782,-3.3764,-3.3859,-3.3839,-3.3873,-3.3872,-3.3891,-3.3889,-3.3977,-3.3912,-3.3912,-3.3912,-3.3912,0,-3.3246,-3.3301,-3.3348,-3.3388,-3.345,-3.3478,-3.3538,-3.3567,-3.3609,-3.3654,-3.3668,-3.371,-3.3743,-3.3789,-3.381,-3.3872,-3.3885,-3.3899,-3.3903,-3.3896,-3.3894,-3.3913,-3.3908,-3.3914,-3.3914,-3.3913,-3.3913,0,-3.3295,-3.3328,-3.3401,-3.3458,-3.3474,-3.3516,-3.3565,-3.3604,-3.3631,-3.3688,-3.3703,-3.3744,-3.3799,-3.383,-3.39,-3.3913,-3.3982,-3.3985,-3.3965,-3.3967,-3.3998,-3.3994,-3.41,-3.4114,-3.4042,-3.4043,-3.4043,0,-3.3337,-3.338,-3.3442,-3.3474,-3.3503,-3.3554,-3.3589,-3.3618,-3.3653,-3.3712,-3.3744,-3.38,-3.3847,-3.3934,-3.397,-3.4023,-3.4026,-3.4059,-3.4034,-3.4025,-3.4024,-3.402,-3.4024,-3.4063,-3.4064,-3.4064,-3.4065,0,-3.3408,-3.3423,-3.3472,-3.3528,-3.3569,-3.3613,-3.3658,-3.3683,-3.372,-3.3758,-3.3815,-3.3852,-3.3923,-3.3978,-3.4034,-3.4062,-3.4069,-3.4073,-3.4083,-3.4075,-3.4061,-3.4067,-3.3975,-3.407,-3.4069,-3.4069,-3.4068,-3.4068,-3.3454,-3.3492,-3.3541,-3.3596,-3.3633,-3.3674,-3.3713,-3.3745,-3.3794,-3.3854,-3.3869,-3.3929,-3.3976,-3.4051,-3.4082,-3.4128,-3.4122,-3.4137,-3.4141,-3.4143,-3.4143,-3.4056,-3.4139,-3.4139,-3.4138,-3.4138,-3.4138,0,-3.3524,-3.3556,-3.3606,-3.3668,-3.3711,-3.3716,-3.3765,-3.38,-3.3852,-3.3896,-3.3942,-3.4007,-3.4061,-3.4101,-3.4156,-3.4185,-3.419,-3.4199,-3.4195,-3.4202,-3.4147,-3.4132,-3.4194,-3.4194,-3.4194,-3.4194,-3.4194,-3.4194,-3.3565,-3.3629,-3.3649,-3.3732,-3.3764,-3.3823,-3.3851,-3.3888,-3.3923,-3.3996,-3.4041,-3.4067,-3.411,-3.4168,-3.4217,-3.4227,-3.4246,-3.4254,-3.4264,-3.4212,-3.4206,-3.42,-3.4185,-3.4258,-3.4258,-3.4315,-3.4315,-3.4316]},{"header":{"parameterUnit":"m.s-1","parameterCategory":1,"la1":30.2991,"la2":30.254,"lo1":-89.0895,"lo2":-89.0444,"dy":0.0017,"dx":0.0017,"nx":28,"ny":28,"refTime":"2023-11-20T03:00:00:Z","depth":0,"parameterNumber":3,"parameterNumberName":"V-component_of_WINDS"},"data":[0,0,0,0,0,0,0,0,0,0,0,0,0,0,0,0,0,0,0,0,0,0,0,0,0,0,0,0,0,0,0,0,0,0,0,0,0,0,0,0,0,0,0,0,0,0,0,0,0,0,0,0,0,0,0,0,0,0,2.1794,2.1796,0,2.1959,2.1961,2.1963,2.1933,2.193,2.1927,2.1924,2.21,2.2107,2.2114,0,0,0,0,0,0,0,0,0,0,0,0,0,2.1464,2.147,2.1794,2.1796,2.1798,2.1958,2.1961,2.1963,2.1934,2.193,2.1926,2.1923,2.2097,2.2106,2.2115,0,0,0,0,0,0,0,0,0,0,0,0,0,2.1616,2.1472,2.1794,2.1803,2.1805,2.1958,2.1961,2.1964,2.1934,2.193,2.1926,2.1921,2.2095,2.2105,2.2116,2.2273,0,0,2.215,2.2155,0,0,0,0,0,0,0,0,2.1607,2.1628,2.1799,2.1802,2.1805,2.1921,2.1909,2.2068,2.1935,2.1885,2.1924,2.1919,2.2044,2.2059,2.21,2.2281,2.2289,2.2151,2.2158,2.2163,2.2166,0,0,0,0,0,0,0,2.1597,2.1621,2.1859,2.1802,2.1806,2.1802,2.1818,2.1939,2.1988,2.1889,2.1888,2.1907,2.2045,2.2089,2.2104,2.2291,2.2151,2.2161,2.2168,2.2172,2.2615,2.2619,0,0,0,0,0,0,2.1582,2.1612,2.1854,2.1864,2.1693,2.1811,2.183,2.1888,2.1986,2.1997,2.1911,2.1905,2.2073,2.2091,2.211,2.2303,2.2163,2.2173,2.2179,2.261,2.2616,2.2621,0,0,0,0,0,0,2.1575,2.1604,2.1847,2.1738,2.1768,2.1821,2.1887,2.1894,2.1938,2.2002,2.2012,2.1946,2.207,2.2094,2.2233,2.2309,2.2178,2.2188,2.2604,2.2611,2.2619,2.2688,0,0,0,0,0,0,2.1566,2.1602,2.1659,2.1739,2.1774,2.1965,2.1892,2.19,2.1956,2.1951,2.2038,2.2049,2.2068,2.2217,2.2244,2.2322,2.2197,2.2597,2.2607,2.2616,2.268,2.2697,2.2713,0,0,0,0,0,2.1554,2.1672,2.1662,2.1691,2.1847,2.1969,2.199,2.2008,2.1962,2.2023,2.2065,2.2046,2.2296,2.2231,2.2262,2.2344,2.2592,2.2604,2.2615,2.2672,2.2694,2.2712,0,0,0,0,0,0,2.1601,2.1683,2.1672,2.1819,2.1888,2.1964,2.204,2.203,2.2114,2.2106,2.2127,2.2147,2.2289,2.233,2.2257,2.2503,2.2438,2.2456,2.2471,2.2492,2.2508,2.2496,2.2206,0,0,0,0,0,2.1628,2.1718,2.1786,2.191,2.1944,2.1987,2.2041,2.2049,2.2122,2.2151,2.2203,2.2276,2.2372,2.2434,2.2525,2.2685,2.2707,2.2757,2.2774,2.2787,2.2803,2.2896,2.292,2.2659,2.2659,2.2659,0,0,2.1686,2.1742,2.1798,2.1921,2.1974,2.2071,2.2011,2.2114,2.2187,2.2167,2.2302,2.2343,2.2427,2.2578,2.2647,2.2617,2.288,2.2802,2.2812,2.2821,2.291,2.2935,2.2957,2.2667,2.2665,2.2664,0,0,2.184,2.189,2.2,2.2056,2.2138,2.2166,2.2193,2.2272,2.2298,2.2433,2.2422,2.251,2.2673,2.2734,2.2786,2.2969,2.2957,2.2998,2.3085,2.3176,2.3196,2.3215,2.3283,2.3307,2.3014,2.3014,2.3014,0,2.1902,2.2044,2.2059,2.2165,2.2221,2.2207,2.2321,2.2375,2.2484,2.2525,2.2488,2.2695,2.275,2.2918,2.2963,2.3004,2.3039,2.2989,2.3191,2.321,2.3228,2.3294,2.3319,2.3019,2.3018,2.3018,2.3017,0,2.2118,2.2217,2.2297,2.2401,2.2467,2.2576,2.2612,2.2677,2.2681,2.2714,2.2855,2.2921,2.3027,2.3067,2.3072,2.3238,2.3216,2.3186,2.3121,2.3257,2.332,2.3345,2.3026,2.3024,2.3023,2.3021,0,0,2.2305,2.2418,2.2448,2.2497,2.2588,2.2666,2.2778,2.288,2.2937,2.3014,2.311,2.325,2.3224,2.3284,2.3296,2.3375,2.352,2.3335,2.3337,2.337,2.3712,2.3736,2.3764,2.3512,2.3517,2.3521,2.3706,0,2.247,2.2663,2.2682,2.2857,2.2952,2.2941,2.3039,2.3108,2.3143,2.3231,2.327,2.337,2.3326,2.3362,2.344,2.3486,2.3589,2.3472,2.3606,2.361,2.3587,2.3796,2.3821,2.3992,2.373,2.3734,2.3737,0,2.2688,2.277,2.2954,2.3036,2.3076,2.3163,2.3261,2.3344,2.3424,2.3444,2.3513,2.3516,2.3635,2.3565,2.3732,2.3652,2.3709,2.374,2.3747,2.3762,2.3683,2.3819,2.4047,2.4074,2.3775,2.3772,2.3769,0,2.281,2.2967,2.3098,2.314,2.3238,2.33,2.3345,2.342,2.3482,2.3568,2.361,2.3709,2.3765,2.3844,2.3876,2.3821,2.4043,2.3975,2.4067,2.4066,2.4115,2.4112,2.4357,2.4147,2.4147,2.4146,2.4146,0,2.2993,2.3107,2.3155,2.3236,2.3365,2.3387,2.3515,2.3557,2.3625,2.3717,2.3715,2.3802,2.3837,2.3932,2.3957,2.4094,2.4119,2.4142,2.4148,2.4143,2.4141,2.4181,2.4171,2.4153,2.4151,2.415,2.4149,0,2.3151,2.3187,2.333,2.3412,2.3435,2.3527,2.3599,2.368,2.3714,2.3831,2.386,2.3916,2.4027,2.4066,2.4201,2.4219,2.4379,2.4374,2.4352,2.4354,2.4445,2.4437,2.4727,2.4768,2.4528,2.4531,2.4532,0,2.3266,2.3354,2.3445,2.3506,2.3552,2.365,2.3713,2.3741,2.3808,2.3908,2.3978,2.4088,2.4177,2.4356,2.4411,2.4516,2.4515,2.4609,2.453,2.4525,2.452,2.4516,2.4527,2.4625,2.4627,2.4629,2.4631,0,2.3469,2.3483,2.3573,2.3671,2.3747,2.3826,2.3902,2.3953,2.3993,2.4069,2.4182,2.4251,2.439,2.4501,2.4609,2.4659,2.4654,2.4655,2.4683,2.468,2.4665,2.4678,2.4395,2.4648,2.4647,2.4645,2.4644,2.4644,2.3611,2.369,2.3768,2.387,2.393,2.4003,2.4084,2.4129,2.4223,2.4337,2.4348,2.4472,2.4554,2.4698,2.4753,2.4853,2.4827,2.4866,2.4876,2.4886,2.4895,2.4647,2.4872,2.4872,2.4871,2.4871,2.4871,0,2.3816,2.3866,2.396,2.4067,2.4149,2.4134,2.422,2.429,2.4398,2.4474,2.4563,2.4695,2.4804,2.4869,2.4979,2.5046,2.5047,2.5075,2.5071,2.5084,2.4909,2.4876,2.5073,2.5073,2.5072,2.5072,2.5072,2.5072,2.3932,2.4066,2.4091,2.4257,2.4307,2.4426,2.4477,2.4546,2.4607,2.4755,2.4844,2.4885,2.4959,2.5075,2.5176,2.5192,2.5235,2.5265,2.528,2.5116,2.5095,2.5076,2.5045,2.5273,2.5274,2.5447,2.5448,2.5449]}]]